Location: Brno
(49.2000°N, 16.6330°E)
Time: 15:14:20
(UTC+02:00)

ISS - Pass Details

Date: 21 April 2026
Orbit: 414 x 424 km, 51.6° (Epoch: 18 May)

Event Time Altitude Azimuth Distance (km) Brightness Sun altitude
Exits shadow 04:41:28 12° 200° (SSW) 1,374 -1.6 -11.0°
Maximum altitude 04:44:01 27° 144° (SE) 842 -2.2 -10.6°
Drops below altitude 10° 04:46:56 10° 84° (E) 1,507 0.2 -10.2°
Sets 04:49:13 0° 72° (ENE) 2,377 1.9 -9.9°
